Location: Unspecified
(0.0000°N, 0.0000°E)
Time: 19:03:52
(UTC+00:00)

deb Explorer IX - Pass Details

Date: 22 November 2019
Orbit: 545 x 1105 km, 38.8° (Epoch: 08 December)

Event Time Altitude Azimuth Distance (km) Brightness Sun altitude
Rises 20:58:57 0° 251° (WSW) 3,826 ? -44.4°
Reaches altitude 10° 21:01:58 10° 260° (W) 2,915 ? -45.0°
Enters shadow 21:04:29 20° 275° (W) 2,269 ? -45.6°
Maximum altitude 21:08:12 31° 320° (NW) 1,813 - -46.4°
Drops below altitude 10° 21:14:28 10° 20° (NNE) 2,919 - -47.8°
Sets 21:17:31 0° 30° (NNE) 3,832 - -48.4°
